Location: Haliburton Scout Reserve
(45.0900°N, 78.3200°W)
Time: 18:44:29
(UTC-05:00)

Courier 1B - Pass Details

Date: 07 December 2023
Orbit: 962 x 1209 km, 28.3° (Epoch: 23 February)

Event Time Altitude Azimuth Distance (km) Brightness Sun altitude
Rises 07:41:50 0° 208° (SSW) 3,872 10.7 -0.2°
Reaches altitude 10° 07:47:30 10° 172° (S) 2,843 10.6 0.6°
Maximum altitude 07:48:52 11° 161° (SSE) 2,780 10.9 0.8°
Drops below altitude 10° 07:50:13 10° 149° (SSE) 2,810 11.3 1.0°
Sets 07:55:39 0° 113° (ESE) 3,702 12.7 1.8°
